owner,sensor,date,latitude,longitude,vertical_datum,direction_of_sea_water_velocity,sea_water_speed,upward_sea_water_velocity,qcFlag 
TABS,ioos:station:wmo:42046:1,2008-12-01T00:00:00Z,27.8903,-94.0367,2.0,84.92418624,10.0594483,-99999.0,'11111222,11111222,99999999' 
TABS,ioos:station:wmo:42046:1,2008-12-01T00:30:00Z,27.8903,-94.0367,2.0,103.8286186,10.7104435,-99999.0,'11111222,11111222,99999999' 
TABS,ioos:station:wmo:42046:1,2008-12-01T01:00:00Z,27.8903,-94.0367,2.0,140.777206,9.061638925,-99999.0,'11133222,11111222,99999999' 
TABS,ioos:station:wmo:42046:1,2008-12-01T01:30:00Z,27.8903,-94.0367,2.0,128.1309923,13.53927989,-99999.0,'11111222,11111222,99999999' 
TABS,ioos:station:wmo:42046:1,2008-12-01T02:00:00Z,27.8903,-94.0367,2.0,113.2617532,7.140448165,-99999.0,'11133222,11111222,99999999' 
TABS,ioos:station:wmo:42046:1,2008-12-01T02:30:00Z,27.8903,-94.0367,2.0,119.6883443,15.10247662,-99999.0,'11111222,11111222,99999999' 
TABS,ioos:station:wmo:42046:1,2008-12-01T03:00:00Z,27.8903,-94.0367,2.0,114.5276631,9.057328524,-99999.0,'11133222,11111222,99999999' 
TABS,ioos:station:wmo:42046:1,2008-12-01T03:30:00Z,27.8903,-94.0367,2.0,130.6860454,17.57897892,-99999.0,'11111222,11111222,99999999' 
TABS,ioos:station:wmo:42046:1,2008-12-01T04:00:00Z,27.8903,-94.0367,2.0,151.1758266,13.27467137,-99999.0,'11111222,11111222,99999999' 
TABS,ioos:station:wmo:42046:1,2008-12-01T04:30:00Z,27.8903,-94.0367,2.0,147.7568668,14.05781277,-99999.0,'11111222,11111222,99999999' 
TABS,ioos:station:wmo:42046:1,2008-12-01T05:00:00Z,27.8903,-94.0367,2.0,167.9339057,12.48583998,-99999.0,'11111222,11111222,99999999' 
TABS,ioos:station:wmo:42046:1,2008-12-01T05:30:00Z,27.8903,-94.0367,2.0,152.5539516,14.25438178,-99999.0,'11111222,11111222,99999999' 
TABS,ioos:station:wmo:42046:1,2008-12-01T06:00:00Z,27.8903,-94.0367,2.0,147.1389129,9.583449275,-99999.0,'11133222,11111222,99999999' 
TABS,ioos:station:wmo:42046:1,2008-12-01T06:30:00Z,27.8903,-94.0367,2.0,146.1747494,9.41328848,-99999.0,'11133222,11111222,99999999' 
TABS,ioos:station:wmo:42046:1,2008-12-01T07:00:00Z,27.8903,-94.0367,2.0,146.9281786,11.05027149,-99999.0,'11111222,11111222,99999999' 
TABS,ioos:station:wmo:42046:1,2008-12-01T07:30:00Z,27.8903,-94.0367,2.0,164.4887336,11.77900675,-99999.0,'11111222,11111222,99999999' 
TABS,ioos:station:wmo:42046:1,2008-12-01T08:00:00Z,27.8903,-94.0367,2.0,159.6297864,14.42188615,-99999.0,'11111222,11111222,99999999' 
TABS,ioos:station:wmo:42046:1,2008-12-01T08:30:00Z,27.8903,-94.0367,2.0,155.0054166,13.86883196,-99999.0,'11111222,11111222,99999999' 
TABS,ioos:station:wmo:42046:1,2008-12-01T09:00:00Z,27.8903,-94.0367,2.0,141.5372832,16.33431051,-99999.0,'11111222,11111222,99999999' 
TABS,ioos:station:wmo:42046:1,2008-12-01T09:30:00Z,27.8903,-94.0367,2.0,137.9342437,15.74670124,-99999.0,'11111222,11111222,99999999' 
TABS,ioos:station:wmo:42046:1,2008-12-01T10:00:00Z,27.8903,-94.0367,2.0,164.9148279,14.17858244,-99999.0,'11111222,11111222,99999999' 
TABS,ioos:station:wmo:42046:1,2008-12-01T10:30:00Z,27.8903,-94.0367,2.0,150.3003126,18.81111374,-99999.0,'11111222,11111222,99999999' 
TABS,ioos:station:wmo:42046:1,2008-12-01T11:00:00Z,27.8903,-94.0367,2.0,159.6225997,19.12695742,-99999.0,'11111222,11111222,99999999' 
TABS,ioos:station:wmo:42046:1,2008-12-01T11:30:00Z,27.8903,-94.0367,2.0,143.4644914,20.89635614,-99999.0,'11111222,11111222,99999999' 
TABS,ioos:station:wmo:42046:1,2008-12-01T12:00:00Z,27.8903,-94.0367,2.0,156.2148941,21.29901876,-99999.0,'11111222,11111222,99999999' 
TABS,ioos:station:wmo:42046:1,2008-12-01T12:30:00Z,27.8903,-94.0367,2.0,150.748274,21.75401802,-99999.0,'11111222,11111222,99999999' 
TABS,ioos:station:wmo:42046:1,2008-12-01T13:00:00Z,27.8903,-94.0367,2.0,130.8029338,21.25606266,-99999.0,'11111222,11111222,99999999' 
TABS,ioos:station:wmo:42046:1,2008-12-01T13:30:00Z,27.8903,-94.0367,2.0,160.6885513,24.19109134,-99999.0,'11111222,11111222,99999999' 
TABS,ioos:station:wmo:42046:1,2008-12-01T14:00:00Z,27.8903,-94.0367,2.0,159.2479271,20.88494434,-99999.0,'11111222,11111222,99999999' 
TABS,ioos:station:wmo:42046:1,2008-12-01T14:30:00Z,27.8903,-94.0367,2.0,154.2776447,23.40969244,-99999.0,'11111222,11111222,99999999' 
TABS,ioos:station:wmo:42046:1,2008-12-01T15:00:00Z,27.8903,-94.0367,2.0,159.9612459,22.93865951,-99999.0,'11111222,11111222,99999999' 
TABS,ioos:station:wmo:42046:1,2008-12-01T15:30:00Z,27.8903,-94.0367,2.0,145.5466163,20.82251906,-99999.0,'11111222,11111222,99999999' 
TABS,ioos:station:wmo:42046:1,2008-12-01T16:00:00Z,27.8903,-94.0367,2.0,160.1824225,18.6122594,-99999.0,'11111222,11111222,99999999' 
TABS,ioos:station:wmo:42046:1,2008-12-01T16:30:00Z,27.8903,-94.0367,2.0,156.6773327,16.99897056,-99999.0,'11111222,11111222,99999999' 
TABS,ioos:station:wmo:42046:1,2008-12-01T17:00:00Z,27.8903,-94.0367,2.0,158.6450704,20.48653216,-99999.0,'11111222,11111222,99999999' 
TABS,ioos:station:wmo:42046:1,2008-12-01T17:30:00Z,27.8903,-94.0367,2.0,153.3501897,18.1703082,-99999.0,'11111222,11111222,99999999' 
TABS,ioos:station:wmo:42046:1,2008-12-01T18:00:00Z,27.8903,-94.0367,2.0,157.3968606,15.6630776,-99999.0,'11111222,11111222,99999999' 
TABS,ioos:station:wmo:42046:1,2008-12-01T18:30:00Z,27.8903,-94.0367,2.0,139.5987835,15.521469,-99999.0,'11111222,11111222,99999999' 
TABS,ioos:station:wmo:42046:1,2008-12-01T19:00:00Z,27.8903,-94.0367,2.0,147.8980172,15.1102912,-99999.0,'11111222,11111222,99999999' 
TABS,ioos:station:wmo:42046:1,2008-12-01T19:30:00Z,27.8903,-94.0367,2.0,145.7801354,14.10108152,-99999.0,'11111222,11111222,99999999' 
TABS,ioos:station:wmo:42046:1,2008-12-01T20:00:00Z,27.8903,-94.0367,2.0,154.4940754,14.51456165,-99999.0,'11111222,11111222,99999999' 
TABS,ioos:station:wmo:42046:1,2008-12-01T20:30:00Z,27.8903,-94.0367,2.0,130.0950511,20.01370031,-99999.0,'11111222,11111222,99999999' 
TABS,ioos:station:wmo:42046:1,2008-12-01T21:00:00Z,27.8903,-94.0367,2.0,127.2366311,19.36839694,-99999.0,'11111222,11111222,99999999' 
TABS,ioos:station:wmo:42046:1,2008-12-01T21:30:00Z,27.8903,-94.0367,2.0,119.9941249,18.24320147,-99999.0,'11111222,11111222,99999999' 
TABS,ioos:station:wmo:42046:1,2008-12-01T22:00:00Z,27.8903,-94.0367,2.0,122.596191,19.32372894,-99999.0,'11111222,11111222,99999999' 
TABS,ioos:station:wmo:42046:1,2008-12-01T22:30:00Z,27.8903,-94.0367,2.0,136.1655082,18.77049813,-99999.0,'11111222,11111222,99999999' 
TABS,ioos:station:wmo:42046:1,2008-12-01T23:00:00Z,27.8903,-94.0367,2.0,138.0473627,15.96075813,-99999.0,'11111222,11111222,99999999' 
TABS,ioos:station:wmo:42046:1,2008-12-01T23:30:00Z,27.8903,-94.0367,2.0,141.9257425,16.65367827,-99999.0,'11111222,11111222,99999999' 
TABS,ioos:station:wmo:42046:1,2008-12-02T00:00:00Z,27.8903,-94.0367,2.0,133.158537,12.54348038,-99999.0,'11111222,11111222,99999999' 
TABS,ioos:station:wmo:42046:1,2008-12-02T00:30:00Z,27.8903,-94.0367,2.0,130.7629286,25.7454093,-99999.0,'11111222,11111222,99999999' 
TABS,ioos:station:wmo:42046:1,2008-12-02T01:00:00Z,27.8903,-94.0367,2.0,126.9977509,26.87006699,-99999.0,'11111222,11111222,99999999' 
TABS,ioos:station:wmo:42046:1,2008-12-02T01:30:00Z,27.8903,-94.0367,2.0,137.3881998,28.5070237,-99999.0,'11111222,11111222,99999999' 
TABS,ioos:station:wmo:42046:1,2008-12-02T02:00:00Z,27.8903,-94.0367,2.0,140.4668837,26.64477622,-99999.0,'11111222,11111222,99999999' 
TABS,ioos:station:wmo:42046:1,2008-12-02T02:30:00Z,27.8903,-94.0367,2.0,135.5742291,26.1006226,-99999.0,'11111222,11111222,99999999' 
TABS,ioos:station:wmo:42046:1,2008-12-02T03:00:00Z,27.8903,-94.0367,2.0,140.1405918,31.40874082,-99999.0,'11111222,11111222,99999999' 
TABS,ioos:station:wmo:42046:1,2008-12-02T03:30:00Z,27.8903,-94.0367,2.0,132.0256611,30.93516607,-99999.0,'11111222,11111222,99999999' 
TABS,ioos:station:wmo:42046:1,2008-12-02T04:00:00Z,27.8903,-94.0367,2.0,133.8861118,28.37448502,-99999.0,'11111222,11111222,99999999' 
TABS,ioos:station:wmo:42046:1,2008-12-02T04:30:00Z,27.8903,-94.0367,2.0,133.3865987,23.86016974,-99999.0,'11111222,11111222,99999999' 
TABS,ioos:station:wmo:42046:1,2008-12-02T05:00:00Z,27.8903,-94.0367,2.0,135.8854424,21.0460115,-99999.0,'11111222,11111222,99999999' 
TABS,ioos:station:wmo:42046:1,2008-12-02T05:30:00Z,27.8903,-94.0367,2.0,139.2852798,26.87448232,-99999.0,'11111222,11111222,99999999' 
TABS,ioos:station:wmo:42046:1,2008-12-02T06:00:00Z,27.8903,-94.0367,2.0,131.2879297,19.00447316,-99999.0,'11111222,11111222,99999999' 
TABS,ioos:station:wmo:42046:1,2008-12-02T06:30:00Z,27.8903,-94.0367,2.0,145.23617,18.50249983,-99999.0,'11111222,11111222,99999999' 
TABS,ioos:station:wmo:42046:1,2008-12-02T07:00:00Z,27.8903,-94.0367,2.0,134.9998948,21.46776188,-99999.0,'11111222,11111222,99999999' 
TABS,ioos:station:wmo:42046:1,2008-12-02T07:30:00Z,27.8903,-94.0367,2.0,130.325742,13.53661701,-99999.0,'11111222,11111222,99999999' 
TABS,ioos:station:wmo:42046:1,2008-12-02T08:00:00Z,27.8903,-94.0367,2.0,124.9426094,17.12768811,-99999.0,'11111222,11111222,99999999' 
TABS,ioos:station:wmo:42046:1,2008-12-02T08:30:00Z,27.8903,-94.0367,2.0,115.9553132,15.97090167,-99999.0,'11111222,11111222,99999999' 
TABS,ioos:station:wmo:42046:1,2008-12-02T09:00:00Z,27.8903,-94.0367,2.0,127.6703904,14.74343922,-99999.0,'11111222,11111222,99999999' 
TABS,ioos:station:wmo:42046:1,2008-12-02T09:30:00Z,27.8903,-94.0367,2.0,128.5716272,12.18937652,-99999.0,'11111222,11111222,99999999' 
TABS,ioos:station:wmo:42046:1,2008-12-02T10:00:00Z,27.8903,-94.0367,2.0,129.7041506,14.47971339,-99999.0,'11111222,11111222,99999999' 
TABS,ioos:station:wmo:42046:1,2008-12-02T10:30:00Z,27.8903,-94.0367,2.0,115.7580615,9.526594355,-99999.0,'11133222,11111222,99999999' 
TABS,ioos:station:wmo:42046:1,2008-12-02T11:00:00Z,27.8903,-94.0367,2.0,119.7185203,10.81210895,-99999.0,'11111222,11111222,99999999' 
TABS,ioos:station:wmo:42046:1,2008-12-02T11:30:00Z,27.8903,-94.0367,2.0,137.9141264,12.10010331,-99999.0,'11111222,11111222,99999999' 
TABS,ioos:station:wmo:42046:1,2008-12-02T12:00:00Z,27.8903,-94.0367,2.0,128.5778336,7.649398669,-99999.0,'11133222,11111222,99999999' 
TABS,ioos:station:wmo:42046:1,2008-12-02T12:30:00Z,27.8903,-94.0367,2.0,122.5045639,13.1381125,-99999.0,'11111222,11111222,99999999' 
TABS,ioos:station:wmo:42046:1,2008-12-02T13:00:00Z,27.8903,-94.0367,2.0,113.1919814,11.47749537,-99999.0,'11111222,11111222,99999999' 
TABS,ioos:station:wmo:42046:1,2008-12-02T13:30:00Z,27.8903,-94.0367,2.0,119.3008118,11.52441322,-99999.0,'11111222,11111222,99999999' 
TABS,ioos:station:wmo:42046:1,2008-12-02T14:00:00Z,27.8903,-94.0367,2.0,108.4226447,14.77732384,-99999.0,'11111222,11111222,99999999' 
TABS,ioos:station:wmo:42046:1,2008-12-02T14:30:00Z,27.8903,-94.0367,2.0,110.8254184,13.19185355,-99999.0,'11111222,11111222,99999999' 
TABS,ioos:station:wmo:42046:1,2008-12-02T15:00:00Z,27.8903,-94.0367,2.0,102.4328059,11.00815153,-99999.0,'11111222,11111222,99999999' 
TABS,ioos:station:wmo:42046:1,2008-12-02T15:30:00Z,27.8903,-94.0367,2.0,97.58019055,13.11460636,-99999.0,'11111222,11111222,99999999' 
TABS,ioos:station:wmo:42046:1,2008-12-02T16:00:00Z,27.8903,-94.0367,2.0,89.7553574,11.71010675,-99999.0,'11111222,11111222,99999999' 
TABS,ioos:station:wmo:42046:1,2008-12-02T16:30:00Z,27.8903,-94.0367,2.0,111.3518346,16.09471031,-99999.0,'11111222,11111222,99999999' 
TABS,ioos:station:wmo:42046:1,2008-12-02T17:00:00Z,27.8903,-94.0367,2.0,107.7670821,11.66643476,-99999.0,'11111222,11111222,99999999' 
TABS,ioos:station:wmo:42046:1,2008-12-02T17:30:00Z,27.8903,-94.0367,2.0,110.0124497,16.65570473,-99999.0,'11111222,11111222,99999999' 
TABS,ioos:station:wmo:42046:1,2008-12-02T18:00:00Z,27.8903,-94.0367,2.0,104.6801335,17.48064644,-99999.0,'11111222,11111222,99999999' 
TABS,ioos:station:wmo:42046:1,2008-12-02T18:30:00Z,27.8903,-94.0367,2.0,100.1904433,18.36978225,-99999.0,'11111222,11111222,99999999' 
TABS,ioos:station:wmo:42046:1,2008-12-02T19:00:00Z,27.8903,-94.0367,2.0,93.00583932,17.35387565,-99999.0,'11111222,11111222,99999999' 
TABS,ioos:station:wmo:42046:1,2008-12-02T19:30:00Z,27.8903,-94.0367,2.0,89.35697823,17.8211223,-99999.0,'11111222,11111222,99999999' 
TABS,ioos:station:wmo:42046:1,2008-12-02T20:00:00Z,27.8903,-94.0367,2.0,84.74181193,17.89530665,-99999.0,'11111222,11111222,99999999' 
TABS,ioos:station:wmo:42046:1,2008-12-02T20:30:00Z,27.8903,-94.0367,2.0,80.72371004,21.77476062,-99999.0,'11111222,11111222,99999999' 
TABS,ioos:station:wmo:42046:1,2008-12-02T21:00:00Z,27.8903,-94.0367,2.0,74.91067919,22.4334839,-99999.0,'11111222,11111222,99999999' 
TABS,ioos:station:wmo:42046:1,2008-12-02T21:30:00Z,27.8903,-94.0367,2.0,68.42925,24.45256019,-99999.0,'11111222,11111222,99999999' 
TABS,ioos:station:wmo:42046:1,2008-12-02T22:00:00Z,27.8903,-94.0367,2.0,72.58615135,26.26372403,-99999.0,'11111222,11111222,99999999' 
TABS,ioos:station:wmo:42046:1,2008-12-02T22:30:00Z,27.8903,-94.0367,2.0,72.91937893,28.63293558,-99999.0,'11111222,11111222,99999999' 
TABS,ioos:station:wmo:42046:1,2008-12-02T23:00:00Z,27.8903,-94.0367,2.0,72.24869257,29.42076308,-99999.0,'11111222,11111222,99999999' 
TABS,ioos:station:wmo:42046:1,2008-12-02T23:30:00Z,27.8903,-94.0367,2.0,72.25251423,30.57510098,-99999.0,'11111222,11111222,99999999' 
TABS,ioos:station:wmo:42046:1,2008-12-03T00:00:00Z,27.8903,-94.0367,2.0,62.82078693,15.01829551,-99999.0,'11111222,11111222,99999999' 
TABS,ioos:station:wmo:42046:1,2008-12-03T00:30:00Z,27.8903,-94.0367,2.0,72.5715434,32.58597398,-99999.0,'11111222,11111222,99999999' 
TABS,ioos:station:wmo:42046:1,2008-12-03T01:00:00Z,27.8903,-94.0367,2.0,80.2156959,30.42251305,-99999.0,'11111222,11111222,99999999' 
TABS,ioos:station:wmo:42046:1,2008-12-03T01:30:00Z,27.8903,-94.0367,2.0,83.90482201,33.05687523,-99999.0,'11111222,11111222,99999999' 
TABS,ioos:station:wmo:42046:1,2008-12-03T02:00:00Z,27.8903,-94.0367,2.0,80.51265812,33.8530427,-99999.0,'11111222,11111222,99999999' 
TABS,ioos:station:wmo:42046:1,2008-12-03T02:30:00Z,27.8903,-94.0367,2.0,97.11928042,24.85159955,-99999.0,'11111222,11111222,99999999' 
TABS,ioos:station:wmo:42046:1,2008-12-03T03:00:00Z,27.8903,-94.0367,2.0,93.1599426,25.57889169,-99999.0,'11111222,11111222,99999999' 
TABS,ioos:station:wmo:42046:1,2008-12-03T03:30:00Z,27.8903,-94.0367,2.0,92.34211872,26.67228149,-99999.0,'11111222,11111222,99999999' 
TABS,ioos:station:wmo:42046:1,2008-12-03T04:00:00Z,27.8903,-94.0367,2.0,99.11172522,27.4058242,-99999.0,'11111222,11111222,99999999' 
TABS,ioos:station:wmo:42046:1,2008-12-03T04:30:00Z,27.8903,-94.0367,2.0,95.18347552,28.44633193,-99999.0,'11111222,11111222,99999999' 
TABS,ioos:station:wmo:42046:1,2008-12-03T05:00:00Z,27.8903,-94.0367,2.0,95.74877815,29.8501273,-99999.0,'11111222,11111222,99999999' 
TABS,ioos:station:wmo:42046:1,2008-12-03T05:30:00Z,27.8903,-94.0367,2.0,93.23624378,28.16491612,-99999.0,'11111222,11111222,99999999' 
TABS,ioos:station:wmo:42046:1,2008-12-03T06:00:00Z,27.8903,-94.0367,2.0,98.55479793,27.09141931,-99999.0,'11111222,11111222,99999999' 
TABS,ioos:station:wmo:42046:1,2008-12-03T06:30:00Z,27.8903,-94.0367,2.0,96.6760306,30.70822203,-99999.0,'11111222,11111222,99999999' 
TABS,ioos:station:wmo:42046:1,2008-12-03T07:00:00Z,27.8903,-94.0367,2.0,97.83152453,28.76832286,-99999.0,'11111222,11111222,99999999' 
TABS,ioos:station:wmo:42046:1,2008-12-03T07:30:00Z,27.8903,-94.0367,2.0,95.20115861,30.77672172,-99999.0,'11111222,11111222,99999999' 
TABS,ioos:station:wmo:42046:1,2008-12-03T08:00:00Z,27.8903,-94.0367,2.0,95.2837693,30.18827587,-99999.0,'11111222,11111222,99999999' 
TABS,ioos:station:wmo:42046:1,2008-12-03T08:30:00Z,27.8903,-94.0367,2.0,99.85519383,27.81038655,-99999.0,'11111222,11111222,99999999' 
TABS,ioos:station:wmo:42046:1,2008-12-03T09:00:00Z,27.8903,-94.0367,2.0,96.8956605,28.8184611,-99999.0,'11111222,11111222,99999999' 
TABS,ioos:station:wmo:42046:1,2008-12-03T09:30:00Z,27.8903,-94.0367,2.0,93.09132576,28.37128478,-99999.0,'11111222,11111222,99999999' 
TABS,ioos:station:wmo:42046:1,2008-12-03T10:00:00Z,27.8903,-94.0367,2.0,95.74926077,25.0560372,-99999.0,'11111222,11111222,99999999' 
TABS,ioos:station:wmo:42046:1,2008-12-03T10:30:00Z,27.8903,-94.0367,2.0,107.0384973,22.96811921,-99999.0,'11111222,11111222,99999999' 
TABS,ioos:station:wmo:42046:1,2008-12-03T11:00:00Z,27.8903,-94.0367,2.0,99.85914354,25.87208921,-99999.0,'11111222,11111222,99999999' 
TABS,ioos:station:wmo:42046:1,2008-12-03T11:30:00Z,27.8903,-94.0367,2.0,96.71887596,29.57310433,-99999.0,'11111222,11111222,99999999' 
TABS,ioos:station:wmo:42046:1,2008-12-03T12:00:00Z,27.8903,-94.0367,2.0,91.09515295,23.5443008,-99999.0,'11111222,11111222,99999999' 
TABS,ioos:station:wmo:42046:1,2008-12-03T12:30:00Z,27.8903,-94.0367,2.0,95.75546751,24.13164934,-99999.0,'11111222,11111222,99999999' 
TABS,ioos:station:wmo:42046:1,2008-12-03T13:00:00Z,27.8903,-94.0367,2.0,97.35236217,26.25587934,-99999.0,'11111222,11111222,99999999' 
TABS,ioos:station:wmo:42046:1,2008-12-03T13:30:00Z,27.8903,-94.0367,2.0,91.4677225,27.32896632,-99999.0,'11111222,11111222,99999999' 
TABS,ioos:station:wmo:42046:1,2008-12-03T14:00:00Z,27.8903,-94.0367,2.0,98.44332822,28.19559717,-99999.0,'11111222,11111222,99999999' 
TABS,ioos:station:wmo:42046:1,2008-12-03T14:30:00Z,27.8903,-94.0367,2.0,93.90469743,27.75442667,-99999.0,'11111222,11111222,99999999' 
TABS,ioos:station:wmo:42046:1,2008-12-03T15:00:00Z,27.8903,-94.0367,2.0,99.35014735,26.0359175,-99999.0,'11111222,11111222,99999999' 
TABS,ioos:station:wmo:42046:1,2008-12-03T15:30:00Z,27.8903,-94.0367,2.0,93.46946971,27.76088075,-99999.0,'11111222,11111222,99999999' 
TABS,ioos:station:wmo:42046:1,2008-12-03T16:00:00Z,27.8903,-94.0367,2.0,91.57188312,24.78932835,-99999.0,'11111222,11111222,99999999' 
TABS,ioos:station:wmo:42046:1,2008-12-03T16:30:00Z,27.8903,-94.0367,2.0,94.5964569,25.33147055,-99999.0,'11111222,11111222,99999999' 
TABS,ioos:station:wmo:42046:1,2008-12-03T17:00:00Z,27.8903,-94.0367,2.0,97.48547539,27.40353627,-99999.0,'11111222,11111222,99999999' 
TABS,ioos:station:wmo:42046:1,2008-12-03T17:30:00Z,27.8903,-94.0367,2.0,104.5979626,28.44837078,-99999.0,'11111222,11111222,99999999' 
TABS,ioos:station:wmo:42046:1,2008-12-03T18:00:00Z,27.8903,-94.0367,2.0,100.0444512,26.37424691,-99999.0,'11111222,11111222,99999999' 
TABS,ioos:station:wmo:42046:1,2008-12-03T18:30:00Z,27.8903,-94.0367,2.0,93.37426974,25.82477105,-99999.0,'11111222,11111222,99999999' 
TABS,ioos:station:wmo:42046:1,2008-12-03T19:00:00Z,27.8903,-94.0367,2.0,91.20850017,27.02601154,-99999.0,'11111222,11111222,99999999' 
TABS,ioos:station:wmo:42046:1,2008-12-03T19:30:00Z,27.8903,-94.0367,2.0,88.28682751,25.42136306,-99999.0,'11111222,11111222,99999999' 
TABS,ioos:station:wmo:42046:1,2008-12-03T20:00:00Z,27.8903,-94.0367,2.0,87.6262831,23.42009607,-99999.0,'11111222,11111222,99999999' 
TABS,ioos:station:wmo:42046:1,2008-12-03T20:30:00Z,27.8903,-94.0367,2.0,85.03894236,22.89577472,-99999.0,'11111222,11111222,99999999' 
TABS,ioos:station:wmo:42046:1,2008-12-03T21:00:00Z,27.8903,-94.0367,2.0,73.98254241,27.28944485,-99999.0,'11111222,11111222,99999999' 
TABS,ioos:station:wmo:42046:1,2008-12-03T21:30:00Z,27.8903,-94.0367,2.0,73.65212886,27.96043276,-99999.0,'11111222,11111222,99999999' 
TABS,ioos:station:wmo:42046:1,2008-12-03T22:00:00Z,27.8903,-94.0367,2.0,73.551256,30.01856259,-99999.0,'11111222,11111222,99999999' 
TABS,ioos:station:wmo:42046:1,2008-12-03T22:30:00Z,27.8903,-94.0367,2.0,77.53240451,28.44068389,-99999.0,'11111222,11111222,99999999' 
TABS,ioos:station:wmo:42046:1,2008-12-03T23:00:00Z,27.8903,-94.0367,2.0,70.53849305,28.06339431,-99999.0,'11111222,11111222,99999999' 
TABS,ioos:station:wmo:42046:1,2008-12-03T23:30:00Z,27.8903,-94.0367,2.0,71.24321202,28.14471531,-99999.0,'11111222,11111222,99999999' 
TABS,ioos:station:wmo:42046:1,2008-12-04T00:00:00Z,27.8903,-94.0367,2.0,66.10780575,27.33212396,-99999.0,'11111222,11111222,99999999' 
TABS,ioos:station:wmo:42046:1,2008-12-04T00:30:00Z,27.8903,-94.0367,2.0,69.29551842,27.54923774,-99999.0,'11111222,11111222,99999999' 
TABS,ioos:station:wmo:42046:1,2008-12-04T01:00:00Z,27.8903,-94.0367,2.0,72.75710316,25.53775636,-99999.0,'11111222,11111222,99999999' 
TABS,ioos:station:wmo:42046:1,2008-12-04T01:30:00Z,27.8903,-94.0367,2.0,79.8047836,27.11818762,-99999.0,'11111222,11111222,99999999' 
TABS,ioos:station:wmo:42046:1,2008-12-04T02:00:00Z,27.8903,-94.0367,2.0,78.17035991,25.51183647,-99999.0,'11111222,11111222,99999999' 
TABS,ioos:station:wmo:42046:1,2008-12-04T02:30:00Z,27.8903,-94.0367,2.0,77.94520444,28.05874552,-99999.0,'11111222,11111222,99999999' 
TABS,ioos:station:wmo:42046:1,2008-12-04T03:00:00Z,27.8903,-94.0367,2.0,78.19431709,28.1044943,-99999.0,'11111222,11111222,99999999' 
TABS,ioos:station:wmo:42046:1,2008-12-04T03:30:00Z,27.8903,-94.0367,2.0,88.38111926,28.67144398,-99999.0,'11111222,11111222,99999999' 
TABS,ioos:station:wmo:42046:1,2008-12-04T04:00:00Z,27.8903,-94.0367,2.0,86.46314317,26.26001714,-99999.0,'11111222,11111222,99999999' 
TABS,ioos:station:wmo:42046:1,2008-12-04T04:30:00Z,27.8903,-94.0367,2.0,84.1460995,27.84520785,-99999.0,'11111222,11111222,99999999' 
TABS,ioos:station:wmo:42046:1,2008-12-04T05:00:00Z,27.8903,-94.0367,2.0,79.02157003,26.78010642,-99999.0,'11111222,11111222,99999999' 
TABS,ioos:station:wmo:42046:1,2008-12-04T05:30:00Z,27.8903,-94.0367,2.0,81.24199055,33.03518427,-99999.0,'11111222,11111222,99999999' 
TABS,ioos:station:wmo:42046:1,2008-12-04T06:00:00Z,27.8903,-94.0367,2.0,82.36788085,34.33415938,-99999.0,'11111222,11111222,99999999' 
TABS,ioos:station:wmo:42046:1,2008-12-04T06:30:00Z,27.8903,-94.0367,2.0,86.82959371,30.37649256,-99999.0,'11111222,11111222,99999999' 
TABS,ioos:station:wmo:42046:1,2008-12-04T07:00:00Z,27.8903,-94.0367,2.0,82.50460008,33.96017962,-99999.0,'11111222,11111222,99999999' 
TABS,ioos:station:wmo:42046:1,2008-12-04T07:30:00Z,27.8903,-94.0367,2.0,90.12026055,33.35007346,-99999.0,'11111222,11111222,99999999' 
TABS,ioos:station:wmo:42046:1,2008-12-04T08:00:00Z,27.8903,-94.0367,2.0,88.74764009,32.02765055,-99999.0,'11111222,11111222,99999999' 
TABS,ioos:station:wmo:42046:1,2008-12-04T08:30:00Z,27.8903,-94.0367,2.0,87.19817802,32.11839504,-99999.0,'11111222,11111222,99999999' 
TABS,ioos:station:wmo:42046:1,2008-12-04T09:00:00Z,27.8903,-94.0367,2.0,89.59365472,29.61074467,-99999.0,'11111222,11111222,99999999' 
TABS,ioos:station:wmo:42046:1,2008-12-04T09:30:00Z,27.8903,-94.0367,2.0,94.95868781,31.46777558,-99999.0,'11111222,11111222,99999999' 
TABS,ioos:station:wmo:42046:1,2008-12-04T10:00:00Z,27.8903,-94.0367,2.0,95.18290732,31.54899206,-99999.0,'11111222,11111222,99999999' 
TABS,ioos:station:wmo:42046:1,2008-12-04T10:30:00Z,27.8903,-94.0367,2.0,109.728309,35.16400006,-99999.0,'11111222,11111222,99999999' 
TABS,ioos:station:wmo:42046:1,2008-12-04T11:00:00Z,27.8903,-94.0367,2.0,112.9876785,32.46836152,-99999.0,'11111222,11111222,99999999' 
TABS,ioos:station:wmo:42046:1,2008-12-04T11:30:00Z,27.8903,-94.0367,2.0,111.7570463,28.81249729,-99999.0,'11111222,11111222,99999999' 
TABS,ioos:station:wmo:42046:1,2008-12-04T12:00:00Z,27.8903,-94.0367,2.0,114.9957398,34.45731417,-99999.0,'11111222,11111222,99999999' 
TABS,ioos:station:wmo:42046:1,2008-12-04T12:30:00Z,27.8903,-94.0367,2.0,118.7316012,27.91714169,-99999.0,'11111222,11111222,99999999' 
TABS,ioos:station:wmo:42046:1,2008-12-04T13:00:00Z,27.8903,-94.0367,2.0,114.0954639,32.79780023,-99999.0,'11111222,11111222,99999999' 
TABS,ioos:station:wmo:42046:1,2008-12-04T13:30:00Z,27.8903,-94.0367,2.0,113.1298727,27.39185463,-99999.0,'11111222,11111222,99999999' 
TABS,ioos:station:wmo:42046:1,2008-12-04T14:00:00Z,27.8903,-94.0367,2.0,108.3682336,29.89303096,-99999.0,'11111222,11111222,99999999' 
TABS,ioos:station:wmo:42046:1,2008-12-04T14:30:00Z,27.8903,-94.0367,2.0,110.1527059,29.43189596,-99999.0,'11111222,11111222,99999999' 
TABS,ioos:station:wmo:42046:1,2008-12-04T15:00:00Z,27.8903,-94.0367,2.0,112.8552521,26.95638143,-99999.0,'11111222,11111222,99999999' 
TABS,ioos:station:wmo:42046:1,2008-12-04T15:30:00Z,27.8903,-94.0367,2.0,111.6342522,24.19434851,-99999.0,'11111222,11111222,99999999' 
TABS,ioos:station:wmo:42046:1,2008-12-04T16:00:00Z,27.8903,-94.0367,2.0,108.0207619,25.37477882,-99999.0,'11111222,11111222,99999999' 